"Pseudo-MPEC" for CD9WW72

Created 2025 Jun 6 7:31:04 UT using Find_Orb

Click here for an explanation of pseudo-MPECs

 
 Astrometry: 
     CD9WW72*1C2025 05 17.26852613 13 59.786+18 23 54.64   ~5H7V 22.38GVNEOCPG96
     CD9WW72 1C2025 05 17.27983213 13 59.081+18 23 53.56   ~5H7V 21.51GVNEOCPG96
     CD9WW72 1C2025 05 17.28548413 13 58.868+18 23 53.81   ~5H7V 21.72GVNEOCPG96

Station data:
(G96) Mt. Lemmon Survey  (N32.442729 W110.788720)  US/Arizona.  Observer E.
   J. Christensen.  + 10K CCD.

Orbital elements:  CD9WW72
   Perihelion 2024 May 31.92786 +/- 375 TT = 22:16:07 (JD 2460462.42786)
Epoch 2025 May 17.0 TT = JDT 2460812.5   Earth MOID: 0.0084   Me: 0.0690
M 166.54448752 +/- 110              (J2000 ecliptic)             AutoNEOCP
n   0.47574333 +/- 0.366            Peri.  245.37413 +/- 59
a   1.62512800 +/- 0.833            Node   144.19628 +/- 80
e   0.7570276 +/- 0.218             Incl.   19.91924 +/- 50
P   2.072/756.696d         H 17.40  G  0.15   U 12.1  SR
q 0.39486116 +/- 1.36    Q 2.85539483 +/- 103
From 3 observations 2025 May 17 (24.4 min); mean residual 0".47
Residuals in arcseconds: 
250517 G96  .29+  .11+    250517 G96  .85-  .34-    250517 G96  .56+  .22+    

Ephemerides (geocentric):
Date (UTC) HH   RA             Dec           delta  r     elong  mag " sig PA
---- --------  ------------   ------------  ------ ------ -----  --- --------
2025 06 06 08  13 01 30.444   +17 21 43.19  2.3454 2.8545 109.9 22.5 5239  76
2025 06 06 09  13 01 29.576   +17 21 30.77  2.3460 2.8545 109.8 22.5 5254  76
2025 06 06 10  13 01 28.712   +17 21 18.33  2.3465 2.8545 109.8 22.5 5268  76
2025 06 06 11  13 01 27.850   +17 21 05.88  2.3471 2.8546 109.8 22.5 5283  76
2025 06 06 12  13 01 26.990   +17 20 53.41  2.3476 2.8546 109.7 22.5 5298  76
2025 06 06 13  13 01 26.134   +17 20 40.93  2.3482 2.8546 109.7 22.5 5313  76
2025 06 06 14  13 01 25.280   +17 20 28.43  2.3487 2.8546 109.6 22.5 5327  76
2025 06 06 15  13 01 24.429   +17 20 15.91  2.3493 2.8546 109.6 22.5 5342  76
2025 06 06 16  13 01 23.581   +17 20 03.38  2.3498 2.8546 109.6 22.5 5357  75
2025 06 06 17  13 01 22.736   +17 19 50.84  2.3504 2.8546 109.5 22.5 5372  75
2025 06 06 18  13 01 21.893   +17 19 38.28  2.3509 2.8546 109.5 22.5 5386  75
2025 06 06 19  13 01 21.053   +17 19 25.70  2.3515 2.8546 109.5 22.5 5401  75
2025 06 06 20  13 01 20.216   +17 19 13.11  2.3520 2.8546 109.4 22.5 5416  75
2025 06 06 21  13 01 19.381   +17 19 00.50  2.3526 2.8546 109.4 22.5 5431  75
2025 06 06 22  13 01 18.549   +17 18 47.88  2.3532 2.8546 109.3 22.5 5446  75
2025 06 06 23  13 01 17.720   +17 18 35.24  2.3537 2.8547 109.3 22.5 5461  75
2025 06 07 00  13 01 16.894   +17 18 22.59  2.3543 2.8547 109.3 22.5 5476  75
2025 06 07 01  13 01 16.071   +17 18 09.92  2.3548 2.8547 109.2 22.5 5491  75
2025 06 07 02  13 01 15.250   +17 17 57.24  2.3554 2.8547 109.2 22.5 5506  75
2025 06 07 03  13 01 14.432   +17 17 44.54  2.3559 2.8547 109.2 22.5 5521  75
2025 06 07 04  13 01 13.616   +17 17 31.82  2.3565 2.8547 109.1 22.5 5536  75
2025 06 07 05  13 01 12.804   +17 17 19.09  2.3570 2.8547 109.1 22.5 5551  75
2025 06 07 06  13 01 11.994   +17 17 06.35  2.3576 2.8547 109.0 22.5 5566  75
2025 06 07 07  13 01 11.187   +17 16 53.59  2.3581 2.8547 109.0 22.5 5581  75
2025 06 07 08  13 01 10.382   +17 16 40.81  2.3587 2.8547 109.0 22.5 5596  75
2025 06 07 09  13 01 09.581   +17 16 28.02  2.3593 2.8547 108.9 22.5 5611  75
2025 06 07 10  13 01 08.782   +17 16 15.22  2.3598 2.8547 108.9 22.5 5626  75
2025 06 07 11  13 01 07.985   +17 16 02.40  2.3604 2.8548 108.9 22.5 5641  75
2025 06 07 12  13 01 07.192   +17 15 49.56  2.3609 2.8548 108.8 22.5 5656  75
2025 06 07 13  13 01 06.401   +17 15 36.71  2.3615 2.8548 108.8 22.5 5671  75
2025 06 07 14  13 01 05.613   +17 15 23.84  2.3620 2.8548 108.7 22.5 5686  75
2025 06 07 15  13 01 04.828   +17 15 10.96  2.3626 2.8548 108.7 22.5 5701  75
2025 06 07 16  13 01 04.045   +17 14 58.07  2.3631 2.8548 108.7 22.5 5717  75
2025 06 07 17  13 01 03.265   +17 14 45.16  2.3637 2.8548 108.6 22.5 5732  75
2025 06 07 18  13 01 02.488   +17 14 32.23  2.3643 2.8548 108.6 22.5 5747  75
2025 06 07 19  13 01 01.714   +17 14 19.29  2.3648 2.8548 108.6 22.5 5762  75
2025 06 07 20  13 01 00.942   +17 14 06.33  2.3654 2.8548 108.5 22.5 5777  75
2025 06 07 21  13 01 00.173   +17 13 53.36  2.3659 2.8548 108.5 22.5 5793  75
2025 06 07 22  13 00 59.407   +17 13 40.38  2.3665 2.8548 108.4 22.5 5808  75
2025 06 07 23  13 00 58.643   +17 13 27.38  2.3670 2.8548 108.4 22.5 5823  75
2025 06 08 00  13 00 57.882   +17 13 14.36  2.3676 2.8549 108.4 22.5 5838  75
2025 06 08 01  13 00 57.124   +17 13 01.33  2.3682 2.8549 108.3 22.5 5854  75
2025 06 08 02  13 00 56.368   +17 12 48.29  2.3687 2.8549 108.3 22.5 5869  75
2025 06 08 03  13 00 55.616   +17 12 35.23  2.3693 2.8549 108.3 22.5 5884  74
2025 06 08 04  13 00 54.866   +17 12 22.15  2.3698 2.8549 108.2 22.5 5900  74
2025 06 08 05  13 00 54.118   +17 12 09.06  2.3704 2.8549 108.2 22.5 5915  74
2025 06 08 06  13 00 53.374   +17 11 55.96  2.3709 2.8549 108.1 22.5 5931  74
2025 06 08 07  13 00 52.632   +17 11 42.84  2.3715 2.8549 108.1 22.5 5946  74